CPA101 EKCH-VHHH

Flight info

Callsign CPA101
Flight time N/A
Altitude 31000
Route SIMEG DCT XERBI DCT MYSKO DCT LAPKA DCT BIMVO DCT LAGAS/N0490F330 DCT TUNEK DCT NINOP DCT GUNKO DCT ASARI/N0492F350 DCT GUGIP DCT MONDA DCT TEBUL DCT LINSO/K0915S1070 DCT DUDIT DCT GYA DCT TAMOT DCT SIERA
Aircraft B77W/H-SDE1E2E3FGHIJ2J3J4J5M1RWXY/LB1D1

Departure

Time 2026-05-04 14:58
Airport Copenhagen Kastrup Airport (EKCH)

Arrival

Time N/A
Airport Hong Kong International Airport (VHHH)
Time Latitude Longitude Altitude Speed Heading
2026-05-04 13:22 55.62572 12.65058 32 ft 0 kts 266°
2026-05-04 14:42 55.62574 12.65101 32 ft 1 kts 266°
2026-05-04 14:42 55.62574 12.65118 32 ft 2 kts 262°
2026-05-04 14:42 55.62579 12.65143 32 ft 2 kts 237°
2026-05-04 14:43 55.62589 12.65163 32 ft 2 kts 217°
2026-05-04 14:43 55.62602 12.65176 32 ft 2 kts 198°
2026-05-04 14:43 55.62615 12.65181 32 ft 0 kts 180°
2026-05-04 14:43 55.62620 12.65180 32 ft 0 kts 178°
2026-05-04 14:50 55.62601 12.65181 32 ft 6 kts 180°
2026-05-04 14:50 55.62543 12.65182 32 ft 8 kts 179°
2026-05-04 14:51 55.62493 12.65184 32 ft 6 kts 174°
2026-05-04 14:51 55.62443 12.65195 32 ft 8 kts 175°
2026-05-04 14:51 55.62378 12.65200 32 ft 8 kts 178°
2026-05-04 14:51 55.62320 12.65202 32 ft 7 kts 187°
2026-05-04 14:52 55.62276 12.65150 32 ft 7 kts 247°
2026-05-04 14:52 55.62286 12.65054 32 ft 8 kts 300°
2026-05-04 14:52 55.62315 12.64969 32 ft 8 kts 302°
2026-05-04 14:52 55.62347 12.64882 32 ft 7 kts 296°
2026-05-04 14:53 55.62347 12.64790 32 ft 8 kts 253°
2026-05-04 14:53 55.62323 12.64694 32 ft 7 kts 246°
2026-05-04 14:53 55.62303 12.64615 32 ft 6 kts 246°
2026-05-04 14:53 55.62300 12.64606 32 ft 0 kts 246°
2026-05-04 14:54 55.62289 12.64561 31 ft 8 kts 246°
2026-05-04 14:55 55.62260 12.64447 31 ft 10 kts 245°
2026-05-04 14:55 55.62194 12.64341 31 ft 16 kts 207°
2026-05-04 14:55 55.62092 12.64255 32 ft 14 kts 206°
2026-05-04 14:55 55.62004 12.64181 32 ft 13 kts 206°
2026-05-04 14:56 55.61916 12.64109 31 ft 16 kts 206°
2026-05-04 14:56 55.61812 12.64076 30 ft 14 kts 177°
2026-05-04 14:56 55.61722 12.64085 30 ft 11 kts 176°
2026-05-04 14:56 55.61641 12.64079 30 ft 12 kts 201°
2026-05-04 14:57 55.61591 12.64019 29 ft 0 kts 221°
2026-05-04 14:57 55.61590 12.64019 29 ft 0 kts 221°
2026-05-04 14:57 55.61537 12.63935 29 ft 35 kts 221°
2026-05-04 14:58 55.61155 12.63346 25 ft 108 kts 221°
2026-05-04 14:58 55.60421 12.62211 32 ft 170 kts 221°
2026-05-04 14:58 55.59432 12.60704 467 ft 196 kts 224°
2026-05-04 14:58 55.58384 12.59153 1214 ft 203 kts 222°
2026-05-04 14:59 55.57344 12.57523 1744 ft 205 kts 225°
2026-05-04 14:59 55.56225 12.55830 2106 ft 216 kts 214°
2026-05-04 14:59 55.53355 12.53953 3130 ft 224 kts 198°
2026-05-04 15:00 55.51777 12.53975 3568 ft 237 kts 166°
2026-05-04 15:00 55.50285 12.55425 3848 ft 255 kts 147°
2026-05-04 15:00 55.48823 12.57342 4176 ft 271 kts 146°
2026-05-04 15:01 55.45737 12.61431 5261 ft 284 kts 146°
2026-05-04 15:01 55.44148 12.63538 5810 ft 290 kts 146°
2026-05-04 15:01 55.42527 12.65685 6408 ft 295 kts 146°
2026-05-04 15:01 55.40891 12.67867 7034 ft 298 kts 146°
2026-05-04 15:02 55.39363 12.70345 7590 ft 307 kts 127°
2026-05-04 15:02 55.38414 12.73707 8259 ft 308 kts 110°
2026-05-04 15:02 55.37770 12.77254 9059 ft 304 kts 107°
2026-05-04 15:02 55.37175 12.80783 9782 ft 302 kts 107°
2026-05-04 15:03 55.36571 12.84289 10414 ft 304 kts 107°
2026-05-04 15:03 55.35948 12.87919 10637 ft 320 kts 108°
2026-05-04 15:03 55.35275 12.91781 10706 ft 342 kts 108°
2026-05-04 15:03 55.34562 12.95891 10793 ft 363 kts 108°
2026-05-04 15:04 55.33814 13.00248 10885 ft 384 kts 109°
2026-05-04 15:04 55.33008 13.04820 11089 ft 401 kts 109°
2026-05-04 15:04 55.32180 13.09537 11570 ft 410 kts 109°
2026-05-04 15:04 55.31341 13.14332 12197 ft 415 kts 109°
2026-05-04 15:05 55.30496 13.19165 12888 ft 419 kts 109°
2026-05-04 15:05 55.29633 13.24057 13469 ft 423 kts 109°
2026-05-04 15:05 55.28763 13.28987 14159 ft 426 kts 109°
2026-05-04 15:05 55.27883 13.33941 14743 ft 430 kts 109°
2026-05-04 15:06 55.26991 13.38953 15292 ft 434 kts 110°
2026-05-04 15:06 55.25856 13.43842 15877 ft 434 kts 121°
2026-05-04 15:06 55.24257 13.48276 16405 ft 433 kts 131°
2026-05-04 15:07 55.19880 13.55310 17530 ft 427 kts 152°
2026-05-04 15:07 55.17357 13.58012 18109 ft 428 kts 154°
2026-05-04 15:07 55.14799 13.60677 18675 ft 431 kts 154°
2026-05-04 15:07 55.12223 13.63351 19192 ft 434 kts 154°
2026-05-04 15:08 55.09623 13.66042 19686 ft 438 kts 155°
2026-05-04 15:08 55.07004 13.68747 20188 ft 441 kts 155°
2026-05-04 15:08 55.04368 13.71465 20701 ft 443 kts 156°
2026-05-04 15:08 55.01720 13.74190 21174 ft 446 kts 156°
2026-05-04 15:09 54.99049 13.76934 21636 ft 448 kts 156°
2026-05-04 15:09 54.96368 13.79683 22090 ft 451 kts 156°
2026-05-04 15:09 54.93660 13.82456 22492 ft 455 kts 156°
2026-05-04 15:10 54.88204 13.88030 23495 ft 457 kts 156°
2026-05-04 15:10 54.85464 13.90821 23882 ft 460 kts 157°
2026-05-04 15:10 54.79921 13.96453 24620 ft 467 kts 156°
2026-05-04 15:11 54.77115 13.99297 24955 ft 471 kts 157°
2026-05-04 15:11 54.74291 14.02155 25308 ft 474 kts 156°
2026-05-04 15:11 54.71448 14.05029 25678 ft 477 kts 157°
2026-05-04 15:11 54.68579 14.07922 26004 ft 480 kts 156°
2026-05-04 15:12 54.65700 14.10823 26419 ft 482 kts 156°
2026-05-04 15:12 54.62806 14.13734 26795 ft 484 kts 156°
2026-05-04 15:12 54.59893 14.16658 27156 ft 487 kts 156°
2026-05-04 15:12 54.56964 14.19593 27482 ft 490 kts 157°
2026-05-04 15:13 54.54019 14.22540 27881 ft 492 kts 156°
2026-05-04 15:13 54.51064 14.25492 28239 ft 494 kts 156°
2026-05-04 15:13 54.48086 14.28461 28561 ft 498 kts 156°
2026-05-04 15:13 54.45094 14.31438 28861 ft 501 kts 156°
2026-05-04 15:14 54.42087 14.34428 29265 ft 502 kts 157°
2026-05-04 15:14 54.39058 14.37434 29678 ft 503 kts 156°
2026-05-04 15:14 54.36001 14.40463 30186 ft 502 kts 156°
2026-05-04 15:14 54.32985 14.43448 30723 ft 499 kts 157°
2026-05-04 15:15 54.29960 14.46433 30942 ft 502 kts 156°
2026-05-04 15:15 54.23873 14.52428 30945 ft 497 kts 156°
2026-05-04 15:16 54.14873 14.61251 30958 ft 497 kts 156°
2026-05-04 15:17 54.05851 14.70048 30947 ft 498 kts 157°
2026-05-04 15:17 53.96843 14.78788 30937 ft 498 kts 157°
2026-05-04 15:18 53.90835 14.84594 30945 ft 497 kts 157°
2026-05-04 15:19 53.81800 14.93287 30955 ft 498 kts 157°
2026-05-04 15:19 53.72820 15.01887 30949 ft 495 kts 157°
2026-05-04 15:20 53.66844 15.07586 30954 ft 492 kts 156°
2026-05-04 15:20 53.60890 15.13244 30948 ft 493 kts 156°
2026-05-04 15:21 53.54940 15.18880 30946 ft 492 kts 156°
2026-05-04 15:22 53.45971 15.27340 30939 ft 494 kts 156°
2026-05-04 15:22 53.37004 15.35759 30939 ft 493 kts 156°
2026-05-04 15:23 53.31042 15.41334 30933 ft 491 kts 156°
2026-05-04 15:23 53.25090 15.46882 30942 ft 491 kts 156°
2026-05-04 15:24 53.13176 15.57932 30948 ft 491 kts 155°
2026-05-04 15:25 53.07221 15.63428 30948 ft 492 kts 155°
2026-05-04 15:26 52.98919 15.73628 30935 ft 501 kts 141°
2026-05-04 15:26 52.91322 15.85560 30919 ft 501 kts 141°
2026-05-04 15:27 52.83689 15.97422 30914 ft 502 kts 141°
2026-05-04 15:28 52.76042 16.09215 30913 ft 503 kts 141°
2026-05-04 15:29 52.68363 16.20986 30913 ft 502 kts 141°
2026-05-04 15:30 52.50456 16.48195 30917 ft 502 kts 140°
2026-05-04 15:31 52.42774 16.59767 30926 ft 503 kts 140°
2026-05-04 15:32 52.29897 16.79039 30924 ft 503 kts 141°
2026-05-04 15:34 52.17006 16.98175 30913 ft 502 kts 141°
2026-05-04 15:34 52.09276 17.09573 30914 ft 501 kts 141°
2026-05-04 15:35 52.01541 17.20924 30916 ft 501 kts 140°
2026-05-04 15:36 51.93784 17.32253 30916 ft 502 kts 140°
2026-05-04 15:36 51.88613 17.39775 30919 ft 501 kts 140°
2026-05-04 15:37 51.83426 17.47294 30925 ft 500 kts 140°
2026-05-04 15:37 51.78235 17.54795 30928 ft 501 kts 140°
2026-05-04 15:38 51.73033 17.62288 30929 ft 500 kts 140°
2026-05-04 15:38 51.67835 17.69751 30925 ft 500 kts 141°
2026-05-04 15:39 51.62618 17.77218 30926 ft 500 kts 141°
2026-05-04 15:40 51.54830 17.88320 30932 ft 499 kts 141°
2026-05-04 15:40 51.49639 17.95690 30933 ft 499 kts 141°
2026-05-04 15:41 51.44447 18.03039 30932 ft 499 kts 141°
2026-05-04 15:41 51.39255 18.10365 30940 ft 499 kts 141°
2026-05-04 15:42 51.34069 18.17659 30943 ft 498 kts 140°
2026-05-04 15:42 51.28877 18.24938 30946 ft 498 kts 140°
2026-05-04 15:43 51.23680 18.32201 30951 ft 498 kts 141°
2026-05-04 15:43 51.18470 18.39461 30948 ft 498 kts 140°
2026-05-04 15:44 51.13264 18.46692 30952 ft 498 kts 140°
2026-05-04 15:44 51.08052 18.53910 30960 ft 498 kts 140°
2026-05-04 15:45 51.02839 18.61105 30960 ft 497 kts 140°
2026-05-04 15:45 50.97619 18.68289 30955 ft 496 kts 141°
2026-05-04 15:46 50.92414 18.75430 30962 ft 496 kts 141°
2026-05-04 15:46 50.87160 18.82615 30958 ft 497 kts 141°
2026-05-04 15:47 50.81929 18.89748 30963 ft 497 kts 141°
2026-05-04 15:47 50.76662 18.96906 30971 ft 498 kts 141°
2026-05-04 15:48 50.71432 19.03994 30975 ft 498 kts 141°
2026-05-04 15:48 50.63564 19.14614 30984 ft 497 kts 141°
2026-05-04 15:49 50.58314 19.21675 30988 ft 498 kts 141°
2026-05-04 15:49 50.53064 19.28715 30984 ft 497 kts 140°
2026-05-04 15:50 50.48181 19.36371 30990 ft 498 kts 134°
2026-05-04 15:50 50.43375 19.44151 30986 ft 498 kts 135°
2026-05-04 15:51 50.38544 19.51888 30981 ft 498 kts 135°
2026-05-04 15:51 50.33690 19.59607 30997 ft 498 kts 135°
2026-05-04 15:52 50.28827 19.67297 30999 ft 499 kts 136°
2026-05-04 15:52 50.23957 19.74965 31005 ft 498 kts 136°
2026-05-04 15:53 50.19085 19.82607 31005 ft 498 kts 135°
2026-05-04 15:53 50.14210 19.90228 31000 ft 498 kts 135°
2026-05-04 15:54 50.09335 19.97825 30997 ft 498 kts 135°
2026-05-04 15:54 50.04440 20.05428 30995 ft 499 kts 135°
2026-05-04 15:55 49.99529 20.13030 30996 ft 499 kts 135°
2026-05-04 15:55 49.94629 20.20595 30990 ft 498 kts 135°
2026-05-04 15:56 49.89733 20.28130 31004 ft 497 kts 135°
2026-05-04 15:56 49.84827 20.35657 31011 ft 498 kts 135°
2026-05-04 15:57 49.79904 20.43188 31015 ft 499 kts 135°
2026-05-04 15:57 49.74985 20.50690 31013 ft 498 kts 135°
2026-05-04 15:58 49.70058 20.58181 31010 ft 498 kts 135°
2026-05-04 15:58 49.65126 20.65657 31007 ft 498 kts 135°
2026-05-04 15:59 49.60190 20.73117 31015 ft 497 kts 135°
2026-05-04 15:59 49.55255 20.80553 31019 ft 498 kts 135°
2026-05-04 16:00 49.50314 20.87976 31023 ft 498 kts 135°
2026-05-04 16:00 49.45360 20.95396 31023 ft 499 kts 135°
2026-05-04 16:01 49.40402 21.02799 31029 ft 499 kts 135°
2026-05-04 16:01 49.35446 21.10179 31045 ft 498 kts 135°
2026-05-04 16:02 49.30488 21.17539 31042 ft 498 kts 135°
2026-05-04 16:03 49.23044 21.28550 31040 ft 498 kts 135°
2026-05-04 16:03 49.18066 21.35885 31045 ft 498 kts 134°
2026-05-04 16:04 49.13090 21.43196 31049 ft 498 kts 134°
2026-05-04 16:04 49.05610 21.54147 31048 ft 498 kts 134°
2026-05-04 16:05 49.00619 21.61426 31048 ft 499 kts 134°
2026-05-04 16:06 48.93116 21.72331 31046 ft 498 kts 135°
2026-05-04 16:07 48.83113 21.86793 31027 ft 498 kts 135°
2026-05-04 16:08 48.73087 22.01205 31033 ft 498 kts 135°
2026-05-04 16:09 48.60533 22.19136 31040 ft 498 kts 135°
2026-05-04 16:10 48.50463 22.33425 31045 ft 497 kts 135°
2026-05-04 16:11 48.40366 22.47671 31047 ft 498 kts 134°
2026-05-04 16:12 48.25180 22.68944 31055 ft 498 kts 135°
2026-05-04 16:13 48.15006 22.83095 31058 ft 498 kts 135°
2026-05-04 16:14 48.04862 22.97126 31064 ft 497 kts 135°
2026-05-04 16:16 47.92136 23.14617 31069 ft 499 kts 135°
2026-05-04 16:17 47.79335 23.32088 31075 ft 498 kts 135°
2026-05-04 16:18 47.69113 23.45951 31082 ft 497 kts 135°
2026-05-04 16:19 47.56352 23.63151 31091 ft 497 kts 135°
2026-05-04 16:20 47.43525 23.80320 31082 ft 495 kts 136°
2026-05-04 16:22 47.30697 23.97374 31084 ft 497 kts 136°
2026-05-04 16:23 47.15323 24.17660 31085 ft 493 kts 136°
2026-05-04 16:25 46.99940 24.37795 31085 ft 492 kts 136°
2026-05-04 16:26 46.81917 24.61179 31087 ft 494 kts 136°
2026-05-04 16:28 46.68998 24.77808 31083 ft 495 kts 137°
2026-05-04 16:29 46.50770 25.01084 31090 ft 499 kts 139°
2026-05-04 16:31 46.37680 25.17666 31100 ft 500 kts 139°
2026-05-04 16:32 46.22049 25.37324 31091 ft 497 kts 140°
2026-05-04 16:33 46.11632 25.50341 31100 ft 495 kts 140°
2026-05-04 16:34 46.03782 25.60115 31103 ft 496 kts 140°
2026-05-04 16:35 45.88098 25.79491 31085 ft 495 kts 141°
2026-05-04 16:36 45.80265 25.89118 31083 ft 494 kts 141°
2026-05-04 16:37 45.72386 25.98763 31088 ft 495 kts 141°
2026-05-04 16:38 45.61981 26.11474 31094 ft 493 kts 141°
2026-05-04 16:39 45.48922 26.27295 31072 ft 495 kts 140°
2026-05-04 16:40 45.38447 26.39918 31068 ft 493 kts 140°
2026-05-04 16:41 45.26473 26.57114 31048 ft 496 kts 118°
2026-05-04 16:43 45.18525 26.78769 31040 ft 494 kts 118°
2026-05-04 16:43 45.13667 26.91562 31038 ft 492 kts 118°
2026-05-04 16:45 45.03847 27.16987 31033 ft 492 kts 118°
2026-05-04 16:46 44.95594 27.38112 31035 ft 492 kts 118°
2026-05-04 16:47 44.88930 27.55045 32197 ft 490 kts 117°
2026-05-04 16:48 44.84002 27.67502 33030 ft 485 kts 118°
2026-05-04 16:48 44.82353 27.71657 33032 ft 484 kts 118°
2026-05-04 16:49 44.75783 27.88152 33034 ft 483 kts 117°
2026-05-04 16:50 44.69210 28.04560 33038 ft 483 kts 117°
2026-05-04 16:51 44.64269 28.16828 33038 ft 482 kts 117°
2026-05-04 16:52 44.57665 28.33145 33038 ft 481 kts 117°
2026-05-04 16:53 44.52709 28.45328 33040 ft 481 kts 117°
2026-05-04 16:54 44.46081 28.61538 33041 ft 482 kts 116°
2026-05-04 16:55 44.36068 28.85855 33030 ft 481 kts 117°
2026-05-04 16:56 44.27749 29.05900 33032 ft 477 kts 116°
2026-05-04 16:57 44.22743 29.17895 33037 ft 478 kts 116°
2026-05-04 16:58 44.16049 29.33854 33031 ft 477 kts 116°
2026-05-04 17:00 44.05991 29.57668 33024 ft 474 kts 116°
2026-05-04 17:01 43.97588 29.77416 33021 ft 473 kts 116°
2026-05-04 17:02 43.90869 29.93107 33016 ft 474 kts 116°
2026-05-04 17:03 43.85810 30.04865 33003 ft 473 kts 116°
2026-05-04 17:03 43.80731 30.16623 32996 ft 472 kts 116°
2026-05-04 17:04 43.73978 30.32179 32991 ft 471 kts 116°
2026-05-04 17:05 43.67207 30.47698 32983 ft 471 kts 116°
2026-05-04 17:06 43.62131 30.59275 32976 ft 471 kts 115°
2026-05-04 17:07 43.57611 30.69547 32974 ft 471 kts 116°
2026-05-04 17:07 43.53653 30.78511 32979 ft 470 kts 116°
2026-05-04 17:08 43.48535 30.90059 32965 ft 469 kts 116°
2026-05-04 17:09 43.45139 30.97699 32953 ft 467 kts 116°
2026-05-04 17:09 43.41745 31.05313 32952 ft 468 kts 116°
2026-05-04 17:10 43.33210 31.24376 32939 ft 467 kts 116°
2026-05-04 17:11 43.29812 31.31927 32934 ft 464 kts 116°
2026-05-04 17:12 43.24717 31.43218 32927 ft 463 kts 115°
2026-05-04 17:13 43.16240 31.61908 32918 ft 462 kts 115°
2026-05-04 17:14 43.09428 31.76841 32923 ft 461 kts 116°
2026-05-04 17:15 43.04355 31.87914 32921 ft 460 kts 116°
2026-05-04 17:16 42.97582 32.02631 32893 ft 459 kts 116°
2026-05-04 17:17 42.90785 32.17328 32893 ft 458 kts 116°
2026-05-04 17:18 42.83963 32.32005 32888 ft 459 kts 116°
2026-05-04 17:19 42.77114 32.46671 32892 ft 459 kts 116°
2026-05-04 17:20 42.70249 32.61294 32890 ft 460 kts 116°
2026-05-04 17:20 42.65078 32.72263 32909 ft 464 kts 117°
2026-05-04 17:21 42.58159 32.86874 32902 ft 462 kts 117°
2026-05-04 17:22 42.54686 32.94182 32891 ft 461 kts 116°
2026-05-04 17:23 42.47741 33.08788 32879 ft 460 kts 114°
2026-05-04 17:23 42.45400 33.16653 32881 ft 448 kts 97°
2026-05-04 17:24 42.44925 33.20759 32878 ft 439 kts 89°
2026-05-04 17:25 42.44704 33.37224 32877 ft 438 kts 87°
2026-05-04 17:26 42.44261 33.53651 32889 ft 437 kts 88°
2026-05-04 17:27 42.43572 33.74225 32916 ft 439 kts 89°
2026-05-04 17:28 42.42972 33.90685 32941 ft 440 kts 89°
2026-05-04 17:29 42.42021 34.15400 32921 ft 438 kts 90°
2026-05-04 17:31 42.41188 34.35990 32911 ft 439 kts 90°
2026-05-04 17:32 42.40315 34.56654 32933 ft 443 kts 90°
2026-05-04 17:33 42.39585 34.73258 32942 ft 444 kts 91°
2026-05-04 17:34 42.38832 34.89873 32924 ft 445 kts 91°
2026-05-04 17:35 42.37856 35.10638 32917 ft 445 kts 91°
2026-05-04 17:36 42.37453 35.18969 32930 ft 446 kts 91°
2026-05-04 17:36 42.37044 35.27309 32916 ft 447 kts 92°
2026-05-04 17:37 42.36628 35.35669 32906 ft 447 kts 92°
2026-05-04 17:37 42.36206 35.44037 32919 ft 447 kts 92°
2026-05-04 17:38 42.35779 35.52381 32905 ft 447 kts 92°
2026-05-04 17:38 42.35343 35.60765 32912 ft 449 kts 92°
2026-05-04 17:39 42.34678 35.73356 32918 ft 449 kts 93°
2026-05-04 17:39 42.34227 35.81734 32903 ft 448 kts 93°
2026-05-04 17:40 42.33768 35.90162 32909 ft 451 kts 93°
2026-05-04 17:40 42.33302 35.98586 32909 ft 452 kts 94°
2026-05-04 17:41 42.32828 36.07032 32907 ft 451 kts 94°
2026-05-04 17:41 42.32350 36.15463 32910 ft 452 kts 94°
2026-05-04 17:42 42.31864 36.23925 32905 ft 452 kts 94°
2026-05-04 17:42 42.31372 36.32362 32905 ft 453 kts 94°
2026-05-04 17:43 42.30876 36.40796 32911 ft 450 kts 94°
2026-05-04 17:43 42.30373 36.49220 32908 ft 454 kts 94°
2026-05-04 17:44 42.29859 36.57716 32911 ft 454 kts 94°
2026-05-04 17:44 42.29339 36.66198 32910 ft 454 kts 95°
2026-05-04 17:45 42.28813 36.74688 32915 ft 455 kts 95°
2026-05-04 17:45 42.28279 36.83206 32915 ft 455 kts 95°
2026-05-04 17:46 42.27737 36.91742 32920 ft 456 kts 95°
2026-05-04 17:46 42.27191 37.00239 32914 ft 456 kts 95°
2026-05-04 17:47 42.26638 37.08751 32917 ft 456 kts 95°
2026-05-04 17:47 42.26079 37.17272 32917 ft 459 kts 95°
2026-05-04 17:48 42.25513 37.25782 32909 ft 456 kts 95°
2026-05-04 17:48 42.24941 37.34297 32908 ft 457 kts 95°
2026-05-04 17:49 42.24362 37.42816 32911 ft 457 kts 95°
2026-05-04 17:49 42.23776 37.51349 32912 ft 459 kts 95°
2026-05-04 17:50 42.23185 37.59858 32908 ft 456 kts 95°
2026-05-04 17:50 42.22586 37.68376 32902 ft 456 kts 96°
2026-05-04 17:51 42.21979 37.76938 32907 ft 461 kts 96°
2026-05-04 17:51 42.21366 37.85486 32909 ft 460 kts 96°
2026-05-04 17:52 42.20744 37.94060 32911 ft 458 kts 96°
2026-05-04 17:52 42.20119 38.02597 32919 ft 460 kts 96°
2026-05-04 17:53 42.19486 38.11145 32904 ft 461 kts 96°
2026-05-04 17:53 42.18846 38.19702 32899 ft 459 kts 96°
2026-05-04 17:54 42.18201 38.28245 32887 ft 460 kts 96°
2026-05-04 17:54 42.17547 38.36817 32888 ft 462 kts 96°
2026-05-04 17:55 42.16887 38.45387 32890 ft 460 kts 96°
2026-05-04 17:55 42.16222 38.53938 32883 ft 460 kts 96°
2026-05-04 17:56 42.15549 38.62497 32891 ft 462 kts 97°
2026-05-04 17:56 42.14865 38.71114 32888 ft 464 kts 97°
2026-05-04 17:57 42.14172 38.79774 32886 ft 463 kts 97°
2026-05-04 17:57 42.13475 38.88393 32883 ft 467 kts 97°
2026-05-04 17:58 42.12770 38.97033 32902 ft 463 kts 97°
2026-05-04 17:58 42.12061 39.05633 32915 ft 465 kts 97°
2026-05-04 17:59 42.11344 39.14257 32918 ft 467 kts 97°
2026-05-04 18:00 42.10253 39.27231 32891 ft 466 kts 97°
2026-05-04 18:00 42.09517 39.35879 32894 ft 466 kts 98°
2026-05-04 18:01 42.08773 39.44545 32901 ft 468 kts 98°
2026-05-04 18:01 42.08024 39.53198 32893 ft 467 kts 98°
2026-05-04 18:02 42.06883 39.66217 32887 ft 468 kts 98°
2026-05-04 18:02 42.06112 39.74926 32885 ft 470 kts 98°
2026-05-04 18:03 42.05333 39.83644 32888 ft 471 kts 98°
2026-05-04 18:03 42.04544 39.92395 32902 ft 472 kts 98°
2026-05-04 18:04 42.03751 40.01117 32889 ft 473 kts 98°
2026-05-04 18:05 42.02546 40.14233 32894 ft 473 kts 99°
2026-05-04 18:05 42.01735 40.22973 32889 ft 471 kts 99°
2026-05-04 18:06 42.00507 40.36052 32883 ft 473 kts 99°
2026-05-04 18:06 41.99679 40.44790 32889 ft 471 kts 99°
2026-05-04 18:07 41.98847 40.53494 32883 ft 472 kts 99°
2026-05-04 18:07 41.98006 40.62215 32883 ft 473 kts 99°
2026-05-04 18:08 41.97160 40.70942 32884 ft 471 kts 99°
2026-05-04 18:08 41.96308 40.79628 32887 ft 471 kts 99°
2026-05-04 18:09 41.94583 40.97031 32884 ft 471 kts 100°
2026-05-04 18:10 41.93712 41.05719 32878 ft 471 kts 100°
2026-05-04 18:10 41.92831 41.14426 32889 ft 472 kts 100°
2026-05-04 18:11 41.91945 41.23133 32889 ft 471 kts 100°
2026-05-04 18:11 41.91051 41.31840 32894 ft 473 kts 100°
2026-05-04 18:12 41.90150 41.40551 32893 ft 472 kts 101°
2026-05-04 18:12 41.89243 41.49258 32901 ft 471 kts 101°
2026-05-04 18:13 41.88331 41.57942 32902 ft 473 kts 101°
2026-05-04 18:14 41.86951 41.70968 32886 ft 470 kts 102°
2026-05-04 18:14 41.86024 41.79635 32888 ft 471 kts 102°
2026-05-04 18:15 41.84150 41.96966 32885 ft 471 kts 102°
2026-05-04 18:16 41.83202 42.05638 32893 ft 472 kts 102°
2026-05-04 18:16 41.82246 42.14325 32893 ft 472 kts 102°
2026-05-04 18:17 41.80799 42.27356 32904 ft 472 kts 102°
2026-05-04 18:18 41.79340 42.40358 32918 ft 472 kts 103°
2026-05-04 18:18 41.78359 42.49020 32928 ft 471 kts 103°
2026-05-04 18:19 41.76876 42.62005 32939 ft 472 kts 103°
2026-05-04 18:19 41.75880 42.70654 32945 ft 470 kts 104°
2026-05-04 18:20 41.74876 42.79303 32955 ft 473 kts 104°
2026-05-04 18:20 41.73864 42.87973 32965 ft 472 kts 104°
2026-05-04 18:21 41.72850 42.96598 32958 ft 471 kts 104°
2026-05-04 18:21 41.71825 43.05255 32954 ft 475 kts 104°
2026-05-04 18:22 41.70793 43.13922 32944 ft 472 kts 104°
2026-05-04 18:22 41.69757 43.22561 32949 ft 472 kts 104°
2026-05-04 18:23 41.68714 43.31199 32944 ft 472 kts 105°
2026-05-04 18:23 41.67669 43.39810 32946 ft 469 kts 104°
2026-05-04 18:24 41.66614 43.48430 32957 ft 474 kts 105°
2026-05-04 18:24 41.65551 43.57068 32948 ft 471 kts 105°
2026-05-04 18:25 41.64483 43.65696 32967 ft 470 kts 105°
2026-05-04 18:25 41.63411 43.74294 32968 ft 470 kts 106°
2026-05-04 18:26 41.62334 43.82883 32975 ft 471 kts 106°
2026-05-04 18:26 41.61250 43.91472 32979 ft 469 kts 106°
2026-05-04 18:27 41.60159 44.00057 32960 ft 471 kts 106°
2026-05-04 18:27 41.59061 44.08657 32962 ft 470 kts 106°
2026-05-04 18:28 41.57953 44.17265 32936 ft 475 kts 106°
2026-05-04 18:28 41.56866 44.25955 32914 ft 476 kts 105°
2026-05-04 18:29 41.55835 44.34639 32911 ft 475 kts 104°
2026-05-04 18:29 41.54794 44.43358 32884 ft 477 kts 104°
2026-05-04 18:30 41.53220 44.56446 32868 ft 479 kts 105°
2026-05-04 18:31 41.52157 44.65210 32874 ft 479 kts 105°
2026-05-04 18:31 41.51091 44.73947 32863 ft 479 kts 105°
2026-05-04 18:32 41.50014 44.82715 32868 ft 479 kts 104°
2026-05-04 18:32 41.48932 44.91467 32857 ft 481 kts 105°
2026-05-04 18:33 41.47839 45.00243 32835 ft 483 kts 104°
2026-05-04 18:33 41.46739 45.09031 32844 ft 481 kts 105°
2026-05-04 18:34 41.45632 45.17812 32845 ft 483 kts 105°
2026-05-04 18:34 41.44516 45.26603 32866 ft 482 kts 104°
2026-05-04 18:35 41.43394 45.35396 32862 ft 484 kts 105°
2026-05-04 18:35 41.42261 45.44216 32860 ft 486 kts 105°
2026-05-04 18:36 41.41119 45.53048 32861 ft 486 kts 105°
2026-05-04 18:36 41.39970 45.61884 32869 ft 486 kts 105°
2026-05-04 18:37 41.38814 45.70721 32863 ft 485 kts 105°
2026-05-04 18:37 41.37653 45.79539 32863 ft 485 kts 105°
2026-05-04 18:38 41.36482 45.88369 32859 ft 487 kts 105°
2026-05-04 18:38 41.35302 45.97217 32856 ft 487 kts 105°
2026-05-04 18:39 41.34110 46.06099 32839 ft 489 kts 105°
2026-05-04 18:39 41.32916 46.14954 32836 ft 489 kts 105°
2026-05-04 18:40 41.31712 46.23823 32824 ft 489 kts 105°
2026-05-04 18:40 41.30501 46.32687 32821 ft 489 kts 105°
2026-05-04 18:41 41.29283 46.41551 32840 ft 488 kts 105°
2026-05-04 18:41 41.28058 46.50410 32841 ft 490 kts 105°
2026-05-04 18:42 41.26824 46.59282 32848 ft 490 kts 105°
2026-05-04 18:42 41.25585 46.68144 32849 ft 489 kts 106°
2026-05-04 18:43 41.24335 46.77026 32828 ft 490 kts 106°
2026-05-04 18:43 41.23082 46.85883 32831 ft 490 kts 107°
2026-05-04 18:44 41.21815 46.94788 32839 ft 488 kts 106°
2026-05-04 18:44 41.20538 47.03698 32838 ft 492 kts 106°
2026-05-04 18:45 41.19258 47.12593 32862 ft 492 kts 106°
2026-05-04 18:45 41.17967 47.21503 32890 ft 494 kts 106°
2026-05-04 18:46 41.16673 47.30399 32939 ft 491 kts 106°
2026-05-04 18:46 41.15366 47.39310 32965 ft 494 kts 106°
2026-05-04 18:47 41.14053 47.48229 32992 ft 496 kts 107°
2026-05-04 18:47 41.12726 47.57184 33001 ft 495 kts 106°
2026-05-04 18:48 41.11397 47.66105 32993 ft 495 kts 107°
2026-05-04 18:48 41.10056 47.75055 32980 ft 497 kts 107°
2026-05-04 18:49 41.08705 47.84026 32988 ft 498 kts 107°
2026-05-04 18:49 41.07349 47.92977 33014 ft 498 kts 107°
2026-05-04 18:50 41.05979 48.01970 33042 ft 500 kts 107°
2026-05-04 18:50 41.04605 48.10948 33059 ft 498 kts 107°
2026-05-04 18:51 41.03223 48.19922 33069 ft 498 kts 107°
2026-05-04 18:51 41.01833 48.28899 33083 ft 499 kts 107°
2026-05-04 18:52 41.00439 48.37859 33070 ft 498 kts 107°
2026-05-04 18:52 40.99032 48.46841 33070 ft 500 kts 107°
2026-05-04 18:53 40.97615 48.55848 33025 ft 501 kts 107°
2026-05-04 18:53 40.96192 48.64841 32947 ft 501 kts 107°
2026-05-04 18:54 40.94757 48.73864 32897 ft 501 kts 107°
2026-05-04 18:54 40.93323 48.82833 32887 ft 499 kts 107°
2026-05-04 18:55 40.91882 48.91797 32882 ft 501 kts 107°
2026-05-04 18:55 40.89699 49.05283 32879 ft 503 kts 107°
2026-05-04 18:56 40.88234 49.14277 32877 ft 502 kts 107°
2026-05-04 18:56 40.86764 49.23264 32876 ft 502 kts 107°
2026-05-04 18:57 40.85280 49.32273 32880 ft 505 kts 107°
2026-05-04 18:57 40.83791 49.41278 32881 ft 505 kts 107°
2026-05-04 18:58 40.82292 49.50295 32877 ft 504 kts 107°
2026-05-04 18:58 40.80786 49.59307 32879 ft 505 kts 107°
2026-05-04 18:59 40.79271 49.68330 32877 ft 503 kts 107°
2026-05-04 18:59 40.77750 49.77337 32884 ft 506 kts 107°
2026-05-04 19:00 40.76220 49.86352 32882 ft 504 kts 107°
2026-05-04 19:00 40.74684 49.95359 32893 ft 506 kts 107°
2026-05-04 19:01 40.73139 50.04378 32888 ft 505 kts 107°
2026-05-04 19:01 40.71584 50.13401 32891 ft 508 kts 107°
2026-05-04 19:02 40.70018 50.22447 32882 ft 508 kts 107°
2026-05-04 19:02 40.68446 50.31484 32876 ft 509 kts 107°
2026-05-04 19:03 40.66864 50.40529 32875 ft 508 kts 107°
2026-05-04 19:03 40.65277 50.49565 32864 ft 507 kts 107°
2026-05-04 19:04 40.63680 50.58607 32861 ft 510 kts 108°
2026-05-04 19:04 40.62072 50.67667 32855 ft 509 kts 108°
2026-05-04 19:05 40.60444 50.76798 32859 ft 511 kts 108°
2026-05-04 19:05 40.58817 50.85878 32854 ft 511 kts 108°
2026-05-04 19:06 40.57184 50.94947 32850 ft 511 kts 108°
2026-05-04 19:06 40.55539 51.04039 32853 ft 512 kts 108°
2026-05-04 19:07 40.53886 51.13138 32859 ft 513 kts 108°
2026-05-04 19:07 40.52224 51.22236 32861 ft 514 kts 108°
2026-05-04 19:08 40.50551 51.31348 32858 ft 514 kts 108°
2026-05-04 19:08 40.48872 51.40454 32861 ft 515 kts 108°
2026-05-04 19:09 40.47184 51.49562 32864 ft 515 kts 108°
2026-05-04 19:09 40.45486 51.58682 32873 ft 516 kts 109°
2026-05-04 19:10 40.43784 51.67784 32862 ft 514 kts 109°
2026-05-04 19:10 40.42076 51.76869 32863 ft 514 kts 109°
2026-05-04 19:11 40.40360 51.85955 32858 ft 516 kts 109°
2026-05-04 19:11 40.38631 51.95069 32856 ft 516 kts 109°
2026-05-04 19:12 40.36022 52.08742 32848 ft 518 kts 109°
2026-05-04 19:13 40.34272 52.17864 32845 ft 518 kts 109°
2026-05-04 19:13 40.32514 52.26983 32845 ft 519 kts 109°
2026-05-04 19:14 40.30747 52.36107 32844 ft 518 kts 109°
2026-05-04 19:14 40.28974 52.45219 32844 ft 519 kts 109°
2026-05-04 19:15 40.27191 52.54342 32842 ft 519 kts 109°
2026-05-04 19:15 40.25209 52.63394 32842 ft 518 kts 112°
2026-05-04 19:16 40.23092 52.72438 32834 ft 518 kts 113°
2026-05-04 19:16 40.20979 52.81407 32824 ft 517 kts 113°
2026-05-04 19:17 40.18852 52.90385 32832 ft 519 kts 113°
2026-05-04 19:17 40.16716 52.99359 32832 ft 519 kts 113°
2026-05-04 19:18 40.14570 53.08339 32835 ft 519 kts 112°
2026-05-04 19:18 40.12411 53.17333 32832 ft 521 kts 112°
2026-05-04 19:19 40.10236 53.26360 32833 ft 521 kts 112°
2026-05-04 19:19 40.08065 53.35336 32831 ft 521 kts 112°
2026-05-04 19:20 40.05885 53.44316 32827 ft 522 kts 112°
2026-05-04 19:20 40.03689 53.53323 32820 ft 522 kts 112°
2026-05-04 19:21 40.01488 53.62317 32819 ft 523 kts 112°
2026-05-04 19:21 39.99275 53.71331 32807 ft 521 kts 113°
2026-05-04 19:22 39.97059 53.80316 32809 ft 522 kts 113°
2026-05-04 19:22 39.94835 53.89306 32814 ft 523 kts 112°
2026-05-04 19:23 39.92598 53.98306 32818 ft 525 kts 112°
2026-05-04 19:23 39.90353 54.07312 32821 ft 526 kts 112°
2026-05-04 19:24 39.88100 54.16314 32829 ft 524 kts 112°
2026-05-04 19:24 39.85839 54.25311 32830 ft 523 kts 112°
2026-05-04 19:25 39.83575 54.34292 32839 ft 525 kts 112°
2026-05-04 19:25 39.81297 54.43290 32857 ft 525 kts 112°
2026-05-04 19:26 39.79016 54.52271 32884 ft 524 kts 112°
2026-05-04 19:26 39.76731 54.61234 32883 ft 523 kts 112°
2026-05-04 19:27 39.74435 54.70204 32860 ft 524 kts 112°
2026-05-04 19:27 39.72132 54.79167 32843 ft 524 kts 112°
2026-05-04 19:28 39.69823 54.88123 32827 ft 524 kts 112°
2026-05-04 19:28 39.67508 54.97069 32814 ft 525 kts 112°
2026-05-04 19:29 39.65188 55.06005 32806 ft 524 kts 112°
2026-05-04 19:29 39.62855 55.14956 32809 ft 527 kts 112°
2026-05-04 19:30 39.60511 55.23921 32809 ft 526 kts 112°
2026-05-04 19:30 39.58163 55.32866 32808 ft 525 kts 112°
2026-05-04 19:31 39.55807 55.41803 32808 ft 527 kts 112°
2026-05-04 19:31 39.53438 55.50764 32803 ft 527 kts 112°
2026-05-04 19:32 39.51064 55.59707 32810 ft 527 kts 112°
2026-05-04 19:32 39.48681 55.68657 32800 ft 528 kts 112°